Regional Weather Roundup
Issued by NWS Raleigh/Durham, NC

Home | Current Version | Previous Version | Text Only | Print | Product List | Glossary On
Versions: 1 2 3 4 5 6 7 8 9 10 11 12 13 14 15 16 17 18 19 20 21 22 23 24 25 26 27 28 29 30 31 32 33 34 35 36 37 38 39 40 41 42 43 44 45 46 47 48 49 50
000
ASUS42 KRAH 250210
RWRRAH
NORTH CAROLINA WEATHER ROUNDUP
NATIONAL WEATHER SERVICE RALEIGH NC
900 PM EST WED FEB 24 2021

NOTE: "FAIR" INDICATES FEW OR NO CLOUDS BELOW 12,000 FEET WITH NO
SIGNIFICANT WEATHER AND/OR OBSTRUCTIONS TO VISIBILITY.

NCZ001-053-055-056-065-067-250300-
WESTERN NORTH CAROLINA

CITY           SKY/WX    TMP DP  RH WIND       PRES   REMARKS
ASHEVILLE      CLEAR     55  30  38 SW5       30.05R
JEFFERSON      CLEAR     54  27  34 W10       30.01F
MORGANTON      CLEAR     55  33  44 SW3       30.04R
HICKORY        CLEAR     61  30  31 SW8       29.99R
WILKESBORO     NOT AVBL
RUTHERFORDTON  CLEAR     61  30  31 CALM      30.03R
MOUNT AIRY     CLEAR     60  32  34 CALM      29.99S
BOONE            N/A     40  31  70 W5        30.04S
$$

NCZ021-022-025-041-071-084-088-250300-
CENTRAL NORTH CAROLINA

CITY           SKY/WX    TMP DP  RH WIND       PRES   REMARKS
CHARLOTTE      CLEAR     56  36  47 SW9       30.02R
GREENSBORO     CLEAR     57  33  40 SW9       29.97S
WINSTON-SALEM  CLEAR     62  31  31 SW7       29.99R
RALEIGH-DURHAM CLEAR     55  36  48 SW6       29.99S
FORT BRAGG     CLEAR     60  35  39 SW3       30.00S
FAYETTEVILLE   CLEAR     57  36  45 S8        30.01S
BURLINGTON     CLEAR     58  32  37 SW5       29.97S
ROXBORO        CLEAR     55  34  44 SW8       29.99S
HENDERSON      NOT AVBL
LOUISBURG      CLEAR     55  34  44 S7        30.01S
LAURINBURG     CLEAR     57  40  52 SW6       30.03R
$$

NCZ011-015-027-028-043-044-047-080-103-250300-
NORTHEASTERN NORTH CAROLINA

CITY           SKY/WX    TMP DP  RH WIND       PRES   REMARKS
ROCKY MT-WILSO CLEAR     58  36  43 S8        29.99S
GREENVILLE     CLEAR     59  36  41 SW8       30.03S
WASHINGTON     CLEAR     58  38  45 S8        30.02F
ELIZABETH CITY CLEAR     58  40  51 S15       29.99R
MANTEO         CLEAR     51  44  77 SW12      30.02S
CAPE HATTERAS  CLEAR     54  49  83 SW9       30.06S
$$

NCZ078-087-090-091-093-098-101-250300-
SOUTHEASTERN NORTH CAROLINA

CITY           SKY/WX    TMP DP  RH WIND       PRES   REMARKS
GOLDSBORO      CLEAR     60  37  42 S8        30.00S
KINSTON        CLEAR     57  37  47 SW9       30.03S
KENANSVILLE    CLEAR     57  37  47 S3        30.04S
NEW BERN       CLEAR     55  39  54 SW8       30.05S
CHERRY POINT   NOT AVBL
BEAUFORT       CLEAR     56  47  71 SW10      30.06S
JACKSONVILLE   CLEAR     57  38  48 SW8       30.05S
WILMINGTON     CLEAR     56  41  57 S8        30.06S
$$





USA.gov is the U.S. government's official web portal to all federal, state and local government web resources and services.